Theta_e
312 313 314 314 314 314 313 314 314 314 314 314 315 315 316 315 314 315 314 314 314 314 315 315 316 317 318 315 314 315 317 322 333 337 337 335 336 334 332 328 323 328 323 321
312 312 313 313 312 313 313 314 314 314 314 314 314 314 314 315 314 314 314 315 314 314 314 314 315 316 318 317 314 313 314 315 320 341 337 337 335 336 334 330 327 328 325 322
313 313 312 312 312 312 313 313 314 313 313 313 313 314 314 314 313 313 314 314 314 313 313 313 314 315 315 313 312 313 313 314 315 318 328 337 340 343 343 337 336 333 333 324
313 312 312 312 312 313 314 313 312 312 313 314 313 313 314 314 314 314 313 313 314 314 315 315 316 314 312 312 312 312 313 313 314 315 316 327 343 345 345 344 344 341 334 329
313 312 312 312 313 312 312 312 312 312 313 313 314 314 315 313 314 314 314 313 314 315 316 316 315 315 315 315 312 312 312 313 313 314 315 318 325 335 341 345 347 345 340 330
312 312 312 313 313 312 312 312 313 314 313 313 314 313 314 315 314 314 314 313 314 315 316 316 315 314 315 315 316 312 312 312 312 313 314 315 317 320 331 338 345 347 348 347
314 313 313 312 313 313 313 314 315 314 315 313 314 313 314 315 314 314 314 313 314 316 315 315 314 315 315 315 317 318 317 312 312 312 313 315 316 317 317 319 335 341 343 345
315 315 312 313 313 313 314 314 315 314 313 314 314 314 316 314 313 313 313 313 314 315 315 314 315 315 315 315 316 318 318 318 312 312 312 313 315 317 325 321 322 330 332 330
314 315 312 312 312 313 313 314 314 314 314 314 314 314 314 315 314 314 313 313 314 315 314 314 314 315 315 315 316 318 319 320 319 313 312 312 313 315 317 319 319 322 326 328
314 315 314 313 312 312 313 314 315 314 314 313 314 314 315 315 315 314 314 314 314 314 313 314 314 314 314 316 317 318 319 320 322 323 316 313 314 315 315 317 319 321 324 324
313 314 314 313 313 313 314 314 313 314 315 316 316 315 316 315 315 314 314 313 313 313 313 313 314 314 314 314 316 317 317 317 319 323 323 321 315 314 315 317 319 321 326 326
313 313 314 312 312 312 312 313 313 316 316 317 317 317 315 315 314 314 314 314 313 313 313 313 313 313 313 313 314 316 317 317 318 321 324 323 321 318 315 317 320 321 332 337
313 314 314 311 313 312 313 312 313 314 315 318 320 317 315 315 315 314 314 314 313 313 313 313 314 314 314 313 314 315 316 316 316 318 323 326 325 325 317 314 317 323 333 340
311 314 314 314 312 313 313 312 313 314 318 317 316 316 316 315 316 315 314 314 313 313 313 313 312 312 313 314 314 316 315 316 316 317 321 325 328 330 324 317 318 333 335 338
312 314 313 312 312 312 312 312 312 313 315 316 315 316 315 316 316 315 314 314 313 313 312 311 311 311 311 312 314 314 315 316 317 317 320 324 327 330 331 330 327 335 336 337
313 313 312 313 312 312 313 313 314 314 315 315 315 316 315 315 314 314 313 313 313 311 311 310 310 310 311 312 313 313 313 315 317 318 321 323 326 328 331 333 335 337 337 338
312 312 312 312 310 313 315 315 315 315 315 315 316 315 315 315 315 313 313 312 312 311 309 310 310 311 311 311 312 313 313 315 316 318 320 324 326 328 331 333 336 337 338 340
311 311 310 312 312 315 314 313 313 314 314 314 314 314 314 314 313 312 312 311 310 308 309 310 309 310 310 311 312 312 313 315 316 318 321 323 326 328 331 335 337 339 340 342
309 310 312 315 316 314 313 316 315 315 315 313 314 315 313 312 312 311 310 310 309 308 308 309 309 310 309 310 311 313 314 315 317 318 321 323 328 330 335 336 338 338 340 343
309 310 314 313 315 313 312 314 313 313 315 314 314 313 313 311 313 314 310 309 308 308 308 309 309 310 310 311 311 313 314 316 316 318 320 325 328 330 336 337 336 340 343 345
310 310 312 311 314 313 314 313 311 315 315 312 311 311 312 313 312 309 307 308 308 308 308 309 308 310 311 312 314 315 315 316 316 318 321 326 328 334 336 335 335 340 346 344
313 313 313 313 314 314 312 312 313 312 311 311 310 309 309 308 307 307 308 307 307 307 307 308 310 310 310 312 313 315 316 312 313 319 322 327 329 335 335 336 338 341 340 338
313 314 314 313 315 312 310 311 310 310 310 309 308 307 307 307 307 307 307 307 307 307 308 309 310 310 310 312 314 315 316 318 319 323 325 328 333 335 337 339 340 338 337 339
311 310 312 311 312 311 310 310 309 309 308 307 306 306 307 307 307 306 306 306 306 307 307 308 308 309 309 311 314 317 319 322 323 324 328 332 335 337 336 338 337 335 334 330
310 309 310 312 311 309 310 309 309 307 306 306 307 307 305 306 306 306 306 306 305 306 306 307 307 308 309 311 315 318 321 323 323 325 332 334 333 334 334 334 333 331 330 329
306 308 307 308 304 306 308 308 305 306 306 306 305 305 304 305 305 305 304 304 304 305 306 309 308 312 317 315 317 320 319 323 326 331 332 333 333 333 332 332 330 330 329 330
Wind_Speed
9 10 12 10 6 6 6 8 9 5 4 10 12 13 15 15 19 18 18 17 16 16 16 14 11 11 10 11 10 9 9 12 19 37 36 33 32 30 31 36 42 39 40 37
9 13 8 3 6 8 9 10 11 7 6 9 13 17 16 17 16 21 19 19 16 14 14 12 11 9 9 10 12 12 10 11 14 18 24 41 36 42 35 46 43 44 47 44
10 5 6 8 9 10 11 11 8 9 10 15 13 19 9 6 7 7 10 10 11 11 11 9 9 11 13 13 15 14 14 14 14 15 18 21 23 29 27 39 45 49 46 47
7 6 7 9 9 9 12 5 6 8 10 8 1 5 9 9 6 6 5 3 5 9 9 6 5 8 11 13 13 15 15 15 14 14 16 19 22 25 31 30 30 33 45 46
1 8 10 10 7 5 8 2 8 11 13 13 16 7 4 6 7 11 3 2 3 1 2 2 5 6 8 11 14 15 16 15 15 17 16 18 22 24 24 22 33 24 35 43
15 10 9 11 6 9 1 10 12 13 10 11 10 6 6 8 7 5 4 5 2 1 2 2 4 10 12 12 13 19 20 19 16 16 19 21 21 24 25 26 27 25 23 31
17 15 12 9 11 8 10 10 8 8 8 6 5 5 8 5 2 6 8 8 7 6 5 7 11 11 13 13 13 13 16 23 21 20 19 20 23 24 26 31 31 31 27 27
15 11 14 10 13 11 8 8 8 6 7 7 4 6 7 7 5 6 6 8 11 10 8 10 11 13 15 14 14 16 17 20 24 25 24 23 24 25 24 26 31 34 36 42
8 15 7 6 5 6 4 10 5 8 15 12 10 7 10 12 6 4 8 8 10 7 11 13 15 17 16 13 15 16 18 20 22 27 30 29 28 27 27 27 28 34 39 40
4 12 5 6 4 9 14 5 5 8 7 12 8 10 8 13 1 4 4 5 7 13 17 20 21 19 18 18 17 18 18 19 21 24 29 31 30 28 28 29 29 31 35 38
7 9 10 8 12 16 9 13 9 8 10 11 12 5 7 2 6 3 4 9 19 24 23 22 25 23 23 21 21 21 23 22 22 22 25 26 31 32 29 28 30 29 32 35
2 5 11 14 13 5 12 13 12 10 10 8 10 15 7 5 2 6 16 17 17 21 22 22 24 26 26 25 24 24 23 23 23 23 24 25 26 30 32 30 30 27 27 28
2 6 8 10 9 6 11 16 16 15 13 15 11 11 4 6 13 23 23 19 19 21 21 22 24 26 26 26 26 25 25 24 24 24 24 25 26 27 32 32 30 29 26 27
5 12 13 12 12 2 6 10 10 12 10 15 20 27 20 20 19 18 21 22 23 23 23 22 23 28 29 28 27 25 26 26 24 25 25 25 26 26 31 33 31 27 26 26
10 17 17 18 18 17 18 19 19 18 21 22 22 27 23 22 22 23 26 24 28 25 27 31 32 33 34 33 29 26 26 26 25 26 27 27 25 25 27 28 30 27 26 27
7 6 8 12 15 17 19 21 21 22 22 23 24 26 24 25 20 23 21 25 27 33 37 39 43 40 34 31 29 29 29 27 24 27 29 28 26 26 26 29 27 27 27 27
4 4 4 9 6 9 13 18 14 18 20 16 19 20 20 21 21 20 24 28 35 38 39 34 32 32 28 28 30 32 30 28 27 28 29 27 26 26 27 28 27 27 28 29
9 7 2 7 10 10 1 2 10 15 16 17 19 20 20 20 25 29 33 37 33 36 38 35 36 35 34 34 33 33 31 29 28 29 28 28 25 28 27 29 28 28 28 32
13 10 4 4 7 14 17 5 7 11 17 19 19 14 24 33 38 33 33 33 33 36 38 39 39 36 39 35 31 30 31 30 29 30 27 27 24 27 27 31 31 31 33 34
6 11 4 4 5 6 5 4 5 11 16 3 17 21 26 28 17 17 36 41 38 40 38 36 36 36 33 32 31 31 30 28 31 29 28 24 24 26 28 34 33 34 36 38
3 3 8 9 7 10 7 6 10 9 8 27 31 31 33 20 27 45 47 42 40 39 39 36 39 36 35 32 28 29 30 32 31 29 27 24 23 22 33 31 35 38 41 39
3 3 4 5 4 6 6 16 5 14 33 34 35 36 37 41 45 44 40 44 43 40 40 36 34 34 36 32 29 31 29 31 34 32 27 24 23 27 30 38 40 42 43 39
3 2 4 5 5 20 22 19 26 26 31 35 37 38 41 42 40 44 41 40 41 38 38 36 36 37 37 34 28 32 31 30 27 26 25 19 21 32 38 43 41 39 38 45
5 7 2 6 5 12 24 28 26 29 35 38 39 42 39 42 43 40 41 39 39 40 40 38 36 38 38 31 27 29 27 23 23 24 20 26 36 38 40 40 40 39 45 42
3 5 4 10 16 22 18 27 32 34 37 39 39 38 41 37 38 39 38 40 41 43 42 39 37 37 34 28 27 24 21 19 19 21 38 39 37 39 38 37 36 46 41 37
4 4 3 5 26 23 25 29 33 35 40 43 38 37 35 33 36 37 39 43 43 44 46 46 41 35 34 27 25 22 16 14 15 21 36 39 43 44 44 47 43 34 34 30
Wind_Direction
202 250 225 242 242 309 275 261 259 240 277 271 260 266 267 257 257 247 253 258 270 263 270 272 284 309 314 308 304 301 271 234 211 228 232 239 240 236 236 249 241 237 253 247
231 235 255 236 227 238 242 248 252 277 263 288 277 282 277 264 255 243 241 241 242 256 273 280 281 296 316 324 306 290 281 271 234 227 230 238 247 250 245 246 241 240 243 241
273 15 159 221 217 238 234 262 281 281 313 273 276 266 218 206 229 196 208 218 248 266 287 284 289 307 313 312 303 298 282 274 270 254 241 239 241 237 244 245 248 252 244 239
255 135 211 225 249 243 264 185 271 277 281 288 53 285 191 202 187 176 145 218 258 258 287 280 296 302 296 298 295 298 290 279 275 268 260 238 239 238 239 247 256 241 244 235
237 202 216 243 271 227 284 269 269 286 278 279 252 237 207 186 195 162 61 27 337 184 183 291 307 313 318 310 299 298 296 290 278 266 258 255 249 248 249 245 241 244 235 234
263 273 283 284 292 242 306 252 254 252 258 247 232 242 214 175 215 152 302 307 267 255 274 282 312 313 309 314 310 293 291 292 290 278 266 259 255 253 245 245 239 238 234 240
233 231 241 261 238 207 236 257 272 238 203 244 98 259 269 138 177 290 310 300 251 231 282 302 309 313 302 295 299 306 298 289 288 285 275 267 262 256 255 244 242 239 234 236
270 240 207 194 234 286 236 296 282 282 278 297 203 249 128 103 285 283 265 283 261 258 277 293 301 305 311 289 292 301 304 300 291 285 282 274 268 265 259 259 250 244 246 245
271 254 137 207 222 275 250 237 326 298 263 259 249 223 227 206 203 202 273 304 270 256 280 297 306 309 308 301 287 295 300 302 298 292 280 273 268 266 262 259 263 255 246 247
296 275 214 160 240 256 262 329 229 213 263 258 247 255 252 188 293 332 299 296 300 293 298 301 302 301 307 303 296 290 293 300 300 294 284 272 265 265 264 260 258 259 252 247
293 255 257 226 221 242 213 230 229 299 278 273 284 275 73 324 298 315 289 304 302 293 287 291 294 296 297 296 290 289 289 291 296 295 286 277 266 260 261 260 256 257 250 244
251 294 270 268 275 260 282 271 229 236 228 234 277 277 353 308 296 273 287 308 304 300 292 286 286 291 291 290 287 281 281 288 290 291 287 277 268 260 255 255 252 253 242 234
347 237 267 239 188 218 238 234 241 254 262 257 257 250 155 219 257 302 302 291 299 302 290 293 293 288 284 284 282 278 277 281 283 286 281 275 268 262 254 251 250 247 237 226
319 265 263 273 310 247 245 256 250 250 248 251 250 275 276 288 295 301 291 292 302 295 292 289 291 296 288 280 279 274 276 276 277 283 275 272 262 261 253 247 246 243 233 221
249 261 268 267 274 278 274 270 265 246 242 250 266 273 287 294 300 299 295 294 291 290 291 292 292 288 287 280 274 273 275 274 272 280 275 270 263 262 259 250 242 238 227 218
234 263 282 285 266 258 263 262 260 256 255 258 268 273 275 278 311 299 297 291 294 294 290 293 292 281 274 278 268 275 275 273 271 276 273 269 265 259 256 250 241 231 221 212
328 268 329 283 296 298 270 261 263 257 249 254 271 290 313 301 311 319 304 298 294 293 294 292 293 299 280 276 270 277 276 273 270 272 271 266 264 259 254 245 234 222 212 201
252 275 263 281 296 256 324 289 311 291 283 285 288 301 309 312 300 306 295 285 291 303 300 285 292 286 281 278 273 273 271 268 269 268 265 266 264 256 250 235 223 212 202 195
231 235 259 254 256 286 288 32 353 338 295 301 293 320 315 310 306 295 285 296 303 301 291 287 280 282 281 276 271 271 267 266 265 265 263 267 261 251 230 220 211 203 191 183
209 224 240 244 291 277 333 83 339 318 281 107 328 319 310 303 287 295 301 303 305 297 293 286 289 284 276 272 269 265 263 264 261 261 268 265 258 243 226 210 204 190 179 170
150 199 231 254 259 272 25 15 322 280 328 325 313 303 296 287 286 303 306 306 302 296 295 288 287 279 276 274 265 262 262 257 257 263 268 267 252 222 219 210 190 176 167 164
236 228 223 224 247 265 19 330 295 304 301 303 301 300 301 303 305 306 306 303 297 295 293 290 282 278 278 276 266 258 254 254 258 262 266 261 219 215 200 184 175 165 168 160
279 249 296 299 294 313 312 299 306 302 300 303 304 304 305 310 305 306 300 298 296 292 290 288 283 281 280 275 259 251 247 250 251 255 258 228 211 187 186 165 169 165 158 157
335 0 247 314 266 303 304 305 308 311 308 309 308 308 311 312 303 298 299 298 295 292 288 287 282 280 277 273 257 250 250 244 245 240 228 185 174 165 169 165 160 154 155 154
344 331 293 267 296 313 294 311 317 319 315 313 317 313 308 301 299 300 298 298 296 294 293 293 287 278 273 263 251 244 241 240 240 245 174 163 165 160 151 150 149 155 156 156
2 347 309 287 294 289 292 320 329 320 328 320 316 313 312 309 303 303 304 301 300 299 305 301 295 282 268 250 232 228 225 224 215 149 148 152 151 151 151 148 146 149 152 151